Simultaneous Nadir Overpasses (SNOs) Predictions

Prediction of SNOs between GOES-17 and NOAA-20 Satellite Orbit:

Table of predicted SNOs for the next 14.0 days since TLE Epoch: 2/6/2021
Index Date Time (GOES-17) GOES-17 Lat,Lon NOAA-20 Lat,Lon Distance(km) Time Diff (sec)
1 02/06/2021 22:17:55 0.03,-137.23 0.95,-133.07 473.39 80
2 02/08/2021 10:39:42 -0.03,-137.20 0.25,-138.33 129.47 80
3 02/09/2021 10:18:18 -0.01,-137.19 -0.78,-133.80 386.22 80
4 02/10/2021 22:40:14 -0.01,-137.18 -0.41,-139.10 218.54 80
5 02/11/2021 22:24:08 -0.01,-137.17 0.56,-134.56 296.72 80
6 02/13/2021 10:45:56 0.00,-137.14 0.63,-139.82 306.58 80
7 02/14/2021 10:24:31 0.00,-137.12 -0.39,-135.29 208.44 80
8 02/15/2021 22:46:28 -0.00,-137.11 -0.79,-140.59 397.24 80
9 02/16/2021 22:30:23 0.00,-137.09 0.24,-136.06 117.63 80
10 02/18/2021 10:52:10 0.00,-137.06 0.95,-141.33 486.27 80
11 02/19/2021 10:30:46 0.00,-137.04 -0.07,-136.80 28.17 80
